Terminal Aerodrome Forecast
Issued by NWS Tallahassee, FL

Home | Current Version | Previous Version | Text Only | Print | Product List | Glossary On
Versions: 1 2 3 4 5 6 7 8 9 10 11 12 13 14 15 16 17 18 19 20 21 22 23 24
000
FTUS42 KTAE 281739
TAFTLH
TAF
KTLH 281739Z 2818/2918 32011KT P6SM SCT250
     FM290300 33003KT P6SM SCT100 SCT250
     FM291400 07005KT P6SM SCT080 SCT100=

USA.gov is the U.S. government's official web portal to all federal, state and local government web resources and services.